Date,TemperatureHighF,TemperatureAvgF,TemperatureLowF,DewpointHighF,DewpointAvgF,DewpointLowF,HumidityHigh,HumidityAvg,HumidityLow,PressureMaxIn,PressureMinIn,WindSpeedMaxMPH,WindSpeedAvgMPH,GustSpeedMaxMPH,PrecipitationSumIn
2013-1-1,36,31,22,28,19,11,71,60,54,30.00,29.82,14,4,14,0.00
2013-1-2,30,24,17,17,13,9,70,62,52,30.15,29.97,13,3,14,0.01
2013-1-3,33,26,13,19,14,7,76,62,48,30.18,30.03,10,2,10,0.00
2013-1-4,38,32,25,25,21,18,75,64,51,30.05,29.92,16,4,16,0.00
2013-1-5,43,34,26,25,21,18,76,61,47,30.26,29.99,15,4,15,0.00
2013-1-6,46,35,29,32,26,22,84,68,49,30.20,29.95,10,2,10,0.00
2013-1-7,45,34,25,30,23,17,81,66,44,30.38,30.03,10,2,10,0.00
2013-1-8,48,34,22,32,25,18,87,70,49,30.41,30.31,9,2,9,0.00
2013-1-9,44,35,25,36,29,21,87,78,66,30.37,30.12,20,2,20,0.00
2013-1-10,49,39,32,32,25,21,70,57,39,30.53,30.20,16,4,16,0.00
2013-1-11,39,35,29,37,29,22,94,79,69,30.53,30.10,5,1,5,0.37
2013-1-12,44,42,39,43,40,37,95,94,93,30.16,30.06,4,1,4,0.05
2013-1-13,44,43,42,43,42,40,96,95,95,30.15,30.00,6,1,6,0.03
2013-1-14,53,46,35,52,40,31,97,81,54,30.29,29.87,12,2,12,0.11
2013-1-15,36,34,32,32,27,25,92,77,66,30.34,30.20,7,2,7,0.16
2013-1-16,32,31,29,30,28,26,93,92,77,30.23,29.79,6,1,6,0.00
2013-1-17,43,35,30,32,27,22,94,74,55,30.08,29.88,12,2,12,0.33
2013-1-18,30,25,20,22,11,5,71,57,38,30.45,30.00,10,3,10,0.01
2013-1-19,45,35,25,29,22,12,72,59,50,30.36,29.89,13,4,13,0.00
2013-1-20,51,39,27,34,23,10,79,54,27,30.02,29.67,23,5,23,0.00
2013-1-21,29,25,20,17,12,8,73,58,47,30.07,29.80,15,2,15,0.00
2013-1-22,24,18,10,16,1,-8,72,48,34,30.17,29.80,19,6,19,0.00
2013-1-23,19,11,7,0,-4,-7,61,50,36,30.22,30.13,13,3,13,0.00
2013-1-24,22,14,6,5,-1,-4,74,53,35,30.35,30.10,20,5,20,0.00
2013-1-25,23,15,10,12,4,-2,78,60,44,30.37,30.03,16,3,16,0.00
2013-1-26,28,19,9,13,7,4,83,61,40,30.33,30.01,14,4,14,0.03
2013-1-27,34,23,15,14,9,6,72,56,39,30.49,30.33,10,3,10,0.00
2013-1-28,32,27,20,30,21,9,93,79,61,30.47,29.98,10,1,10,0.09
2013-1-29,48,37,32,43,34,29,94,89,76,30.14,29.97,5,1,5,0.24
2013-1-30,52,45,35,51,43,33,96,95,92,30.08,29.35,7,1,7,0.25
2013-1-31,58,42,27,56,28,10,97,60,37,29.75,29.03,26,9,26,1.16
2013-2-1,30,25,21,14,10,6,68,52,38,30.20,29.74,20,5,20,0.00
2013-2-2,28,22,16,16,10,4,80,61,37,30.26,30.04,15,2,15,0.00
2013-2-3,32,24,18,21,16,14,87,74,57,30.04,29.78,7,1,7,0.06
2013-2-4,30,25,20,18,11,7,79,56,41,29.95,29.78,15,4,15,0.01
2013-2-5,27,26,23,24,20,12,87,78,58,29.97,29.89,5,1,5,0.00
2013-2-6,38,30,22,27,18,4,91,63,38,30.33,29.89,13,3,13,0.02
2013-2-7,30,25,19,18,10,4,68,54,41,30.49,30.32,5,1,5,0.00
2013-2-8,31,29,25,28,25,18,93,86,68,30.33,29.64,11,4,11,0.00
2013-2-9,32,25,17,24,17,7,92,73,48,30.32,29.74,17,6,17,0.27
2013-2-10,38,23,8,19,10,3,80,59,35,30.46,30.31,7,1,7,0.36
2013-2-11,39,33,25,37,30,19,94,88,75,30.31,29.66,6,1,6,0.17
2013-2-12,44,38,32,34,28,23,94,68,49,29.95,29.70,15,4,15,0.02
2013-2-13,47,36,23,30,24,18,91,64,45,29.94,29.69,8,1,8,0.00
2013-2-14,47,35,25,34,27,23,92,73,44,29.98,29.71,7,1,7,0.06
2013-2-15,54,40,28,36,29,23,88,65,39,30.00,29.90,13,2,13,0.00
2013-2-16,37,32,28,31,24,14,90,72,56,29.97,29.74,9,3,9,0.05
2013-2-17,30,24,15,14,6,-1,57,46,33,29.96,29.64,28,8,28,0.01
2013-2-18,34,22,14,13,6,2,60,50,33,30.21,29.96,18,5,18,0.00
2013-2-19,43,34,21,37,26,13,93,74,52,30.18,29.66,19,2,19,0.30
2013-2-20,35,29,23,23,14,9,66,55,42,29.95,29.69,19,7,19,0.00
2013-2-21,32,26,22,14,12,10,69,57,46,30.28,29.94,23,6,23,0.00
2013-2-22,37,29,22,26,20,13,78,70,52,30.39,30.24,10,2,10,0.00
2013-2-23,37,34,31,36,32,26,94,91,76,30.26,29.80,8,1,8,0.13
2013-2-24,45,36,31,38,30,22,95,81,60,29.95,29.74,14,4,14,0.01
2013-2-25,45,36,28,30,26,21,79,66,52,30.23,29.95,10,2,10,0.00
2013-2-26,42,35,29,32,28,23,92,76,66,30.28,29.92,15,3,15,0.13
2013-2-27,43,39,34,42,37,32,95,93,90,29.92,29.50,17,4,17,0.99
2013-2-28,47,40,35,40,33,30,94,78,61,29.62,29.54,9,2,9,0.00
2013-3-1,44,37,32,32,28,24,84,72,55,29.77,29.59,11,4,11,0.00
2013-3-2,38,34,29,26,24,22,79,66,57,29.76,29.68,12,4,12,0.00
2013-3-3,42,30,26,22,19,16,76,62,43,29.75,29.65,15,5,15,0.00
2013-3-4,39,31,25,22,19,15,72,62,48,29.89,29.73,18,6,18,0.00
2013-3-5,47,36,28,28,24,20,72,60,44,30.02,29.88,13,3,13,0.00
2013-3-6,39,37,33,34,29,24,85,73,67,29.98,29.87,19,5,19,0.03
2013-3-7,36,32,30,30,29,26,93,89,67,30.07,29.93,11,2,11,0.04
2013-3-8,39,33,29,32,29,27,94,85,65,30.19,29.98,0,0,0,0.16
2013-3-9,53,42,32,27,22,17,69,48,27,30.31,30.17,9,2,9,0.00
2013-3-10,53,38,27,36,29,20,85,69,51,30.38,30.28,10,2,10,0.00
2013-3-11,53,44,36,45,39,31,90,81,63,30.31,30.08,11,3,11,0.00
2013-3-12,52,48,40,50,46,35,96,91,81,30.08,29.66,17,4,17,1.29
2013-3-13,48,39,31,36,29,22,89,68,38,29.87,29.78,14,3,14,0.00
2013-3-14,38,31,26,26,14,6,69,50,28,29.94,29.82,21,7,21,0.00
2013-3-15,42,34,26,29,19,8,66,53,40,29.94,29.69,13,5,13,0.00
2013-3-16,37,32,29,27,23,19,86,68,51,29.90,29.77,8,2,8,0.02
2013-3-17,37,31,25,27,18,12,85,60,41,30.29,29.89,11,3,11,0.02
2013-3-18,33,28,22,28,15,8,92,60,44,30.40,30.02,10,2,10,0.00
2013-3-19,42,34,30,36,31,25,94,88,72,30.02,29.69,11,3,11,0.57
2013-3-20,44,35,27,25,20,16,74,57,38,29.86,29.78,19,4,19,0.01
2013-3-21,39,32,28,24,17,12,77,54,38,29.83,29.62,13,3,13,0.00
2013-3-22,39,33,25,22,17,12,70,54,44,29.86,29.70,16,4,16,0.00
2013-3-23,45,35,29,24,20,17,64,54,38,29.92,29.80,18,6,18,0.00
2013-3-24,45,36,27,24,21,16,66,54,40,29.94,29.71,10,3,10,0.00
2013-3-25,42,38,34,31,26,23,75,64,49,29.71,29.46,13,3,13,0.00
2013-3-26,51,40,32,32,27,24,75,60,41,29.84,29.58,10,3,10,0.01
2013-3-27,52,41,33,31,26,22,69,54,33,29.91,29.80,17,4,17,0.00
2013-3-28,48,41,35,34,29,27,75,62,50,30.04,29.88,12,4,12,0.00
2013-3-29,53,44,38,31,28,26,69,55,38,30.07,29.95,12,4,12,0.00
2013-3-31,54,49,36,33,31,26,67,51,41,30.08,30.03,11,4,11,0.00
2013-4-2,44,36,28,16,12,9,59,39,27,30.07,29.91,21,6,21,0.00
2013-4-3,46,36,29,16,13,9,53,38,27,30.28,30.05,18,6,20,0.00
2013-4-4,56,40,26,29,20,12,62,45,24,30.36,30.06,13,3,13,0.00
2013-4-5,62,47,37,30,22,15,62,41,20,30.07,29.72,16,4,16,0.00
2013-4-6,57,41,32,23,14,6,57,35,15,30.29,29.98,13,4,13,0.00
2013-4-7,57,45,34,41,32,22,81,61,37,30.28,29.97,17,4,17,0.00
2013-4-8,74,55,40,45,40,36,88,61,27,30.07,29.96,12,2,12,0.00
2013-4-9,82,61,48,52,45,37,84,61,21,30.00,29.91,20,4,20,0.00
2013-4-10,72,61,50,55,50,42,92,68,52,29.95,29.82,13,3,13,0.00
2013-4-11,56,56,56,54,54,53,92,92,91,29.86,29.79,8,2,8,0.00
2013-4-16,65,54,44,53,44,33,79,71,59,30.36,30.10,12,3,12,0.00
2013-4-28,61,55,52,33,30,27,48,39,32,30.23,30.19,10,2,10,0.00
2013-4-29,54,53,50,47,44,33,86,72,47,30.23,30.18,8,1,8,0.00
2013-4-30,71,57,46,46,41,28,79,58,24,30.33,30.20,8,2,8,0.00
2013-5-1,74,55,39,44,36,29,74,51,28,30.48,30.32,11,2,11,0.00
2013-5-2,79,59,41,47,40,36,84,54,23,30.47,30.31,9,2,9,0.00
2013-5-3,58,53,48,42,38,34,66,57,41,30.45,30.38,7,1,7,0.00
2013-5-8,61,58,52,60,56,50,94,93,91,30.03,29.97,5,1,5,0.00
2013-5-9,70,57,50,62,54,48,96,90,68,30.01,29.88,5,0,5,0.00
2013-5-10,80,65,50,63,54,48,95,71,40,30.00,29.90,9,1,9,0.00
2013-5-11,69,63,60,65,60,54,93,89,81,29.90,29.70,12,2,12,0.00
2013-5-12,68,59,48,58,42,27,93,57,28,29.92,29.65,12,3,12,0.00
2013-5-13,48,43,39,34,30,28,72,59,47,30.00,29.91,9,1,9,0.00
2013-5-16,89,71,52,57,48,41,87,47,25,29.84,29.71,10,2,10,0.00
2013-5-17,76,64,56,46,42,37,59,45,32,30.20,29.84,7,1,7,0.00
2013-5-30,77,73,72,64,63,62,75,72,64,30.09,30.07,3,1,3,0.00
2013-5-31,91,79,65,72,64,60,87,63,41,30.13,29.98,10,2,10,0.00
2013-6-1,89,78,63,70,66,58,88,66,47,30.02,29.90,10,2,10,0.00
2013-6-2,87,78,69,69,67,64,89,70,52,29.92,29.77,13,3,13,0.00
2013-6-3,76,69,64,68,63,49,94,81,55,29.90,29.81,6,1,6,0.00
2013-6-4,81,64,54,50,44,40,66,50,30,30.12,29.89,12,2,12,0.00
2013-6-5,76,63,50,52,46,39,73,53,35,30.21,30.11,8,1,8,0.00
2013-6-6,68,60,52,56,51,46,86,72,49,30.15,30.07,10,1,10,0.00
2013-6-12,81,68,60,58,54,52,78,60,44,29.86,29.71,11,2,11,0.00
2013-6-13,60,58,53,58,55,51,95,90,78,29.85,29.50,6,1,6,0.00
2013-6-14,53,52,52,52,51,50,95,95,95,29.61,29.55,4,2,4,0.00